Change the Weather History Date:

Tuesday, June 17, 2014

  Actual Average Record
Temperature  
Mean Temperature 71 °F 66 °F  
Max Temperature 85 °F 78 °F 96 °F (1994)
Min Temperature 57 °F 55 °F 37 °F (1925)
Cooling Degree Days 6 3  
Month to date cooling degree days 23 37  
Year to date cooling degree days 27 55  
Since 1 June cooling degree days 23 37  
Growing Degree Days 20 (Base 50)    
Moisture  
Dew Point 56 °F    
Average Humidity 63    
Maximum Humidity 93    
Minimum Humidity 32    
Precipitation  
Precipitation 0.09 in 0.13 in 1.46 in (1945)
Month to date precipitation 1.69 2.25  
Year to date precipitation 17.39 15.66  
Sea Level Pressure  
Sea Level Pressure 29.92 in    
Wind  
Wind Speed - (North)    
Max Wind Speed -    
Max Gust Speed -    
T = Trace of Precipitation, MM = Missing Value Source: NWS Daily Summary

Daily Weather History Graph

Daily Weather History Graph

Search for Another Location

Airport or City:

Trip Planner

Search our weather history database for the weather conditions in past years. The results will help you decide how hot, cold, wet, or windy it might be!

Date:

Astronomy

Jun. 17, 2014 Rise Set
Actual Time 5:03 AM EDT 8:35 PM EDT
Civil Twilight 4:26 AM EDT 9:11 PM EDT
Nautical Twilight 3:37 AM EDT 10:00 PM EDT
Astronomical Twilight 2:34 AM EDT 11:03 PM EDT
Moon 11:50 PM EDT (6/17) 10:24 AM EDT (6/17)
Length of Visible Light 16h 45m
Length of Day
15h 32m
Waning Gibbous, 73% of the Moon is Illuminated
Jun 17
Waning Gibbous
Jun 19
Last Quarter
Jun 27
New
Jul 5
First Quarter
Jul 12
Full

Hourly Weather History & Observations

Time (EDT) Temp. Heat Index Dew Point Humidity Pressure Visibility Wind Dir Wind Speed Gust Speed Precip Events Conditions
12:54 AM 61.0 °F - 55.9 °F 83% 30.00 in - North - - N/A   Unknown
1:54 AM 60.1 °F - 55.9 °F 86% 30.00 in - North - - N/A   Unknown
2:54 AM 60.1 °F - 55.9 °F 86% 29.99 in - North - - N/A   Unknown
3:54 AM 57.9 °F - 55.0 °F 90% 29.99 in - North - - N/A   Unknown
4:54 AM 57.0 °F - 54.0 °F 89% 29.97 in - North - - N/A   Unknown
5:54 AM 57.0 °F - 53.1 °F 87% 29.99 in - North - - N/A   Unknown
6:54 AM 59.0 °F - 54.0 °F 83% 30.01 in - North - - N/A   Unknown
7:54 AM 63.0 °F - 55.0 °F 75% 30.01 in - North - - N/A   Unknown
8:54 AM 66.9 °F - 55.9 °F 68% 30.02 in - North - - N/A   Unknown
9:54 AM 71.1 °F - 57.0 °F 61% 30.01 in - North - - N/A   Unknown
10:54 AM 75.0 °F - 57.0 °F 53% 29.98 in - North - - N/A   Unknown
11:54 AM 78.1 °F - 57.9 °F 50% 29.97 in - North - - N/A   Unknown
12:54 PM 81.0 °F 80.4 °F 53.1 °F 38% 29.96 in - North - - N/A   Unknown
1:54 PM 80.1 °F - 52.0 °F 38% 29.93 in - North - - N/A   Unknown
2:54 PM 84.0 °F - 51.1 °F 32% 29.91 in - North - - N/A   Unknown
3:54 PM 81.0 °F 80.4 °F 53.1 °F 38% 29.90 in - North - - N/A   Unknown
4:54 PM 84.0 °F 82.5 °F 53.1 °F 34% 29.88 in - North - - N/A   Unknown
5:54 PM 82.0 °F 81.2 °F 53.1 °F 37% 29.86 in - North - - N/A   Unknown
6:54 PM 79.0 °F - 54.0 °F 42% 29.83 in - North - - N/A   Unknown
7:54 PM 75.9 °F - 57.9 °F 54% 29.80 in - North - - N/A   Unknown
8:54 PM 72.0 °F - 59.0 °F 64% 29.82 in - North - - N/A   Unknown
9:54 PM 70.0 °F - 59.0 °F 68% 29.80 in - North - - N/A   Unknown
10:54 PM 69.1 °F - 59.0 °F 70% 29.75 in - North - - N/A   Unknown
11:54 PM 66.9 °F - 61.0 °F 81% 29.68 in - North - - N/A   Unknown